K7SFN Weather Reports


Display with metric or nautical units.
time (UTC)temp
F
wind
direction
speed
MPH
gust
MPH
rain 1hr
in
rain 24hr
in
rain mn
in
humidity
%
barometer
mb
20260503030005 57 63 4.0 13.0 0.00 0.00 0.00 66 1015.7
20260503025505 58 76 3.0 10.0 0.00 0.00 0.00 64 1015.6
20260503024004 59 88 5.0 9.0 0.00 0.00 0.00 58 1015.1
20260503023504 59 51 7.0 16.0 0.00 0.00 0.00 56 1015.1
20260503023004 59 58 10.0 16.0 0.00 0.00 0.00 55 1015.0
20260503022504 59 42 9.0 18.0 0.00 0.00 0.00 55 1014.8
20260503022004 59 42 8.0 14.0 0.00 0.00 0.00 55 1014.8
20260503021504 60 40 10.0 15.0 0.00 0.00 0.00 54 1014.8
20260503021004 60 51 9.0 14.0 0.00 0.00 0.00 53 1014.8
20260503020505 61 53 6.0 12.0 0.00 0.00 0.00 52 1014.7
20260503014504 61 34 6.0 8.0 0.00 0.00 0.00 50 1014.8
20260503014004 61 19 3.0 7.0 0.00 0.00 0.00 50 1014.7
20260503013505 61 13 3.0 9.0 0.00 0.00 0.00 51 1014.7
20260503012004 62 7 3.0 8.0 0.00 0.00 0.00 49 1014.8
20260503011505 62 357 5.0 9.0 0.00 0.00 0.00 51 1014.8
20260503011004 63 340 6.0 14.0 0.00 0.00 0.00 50 1014.8
20260503010504 63 336 3.0 8.0 0.00 0.00 0.00 49 1014.8
20260503010004 63 15 2.0 8.0 0.00 0.00 0.00 45 1014.8
20260503005504 64 43 5.0 13.0 0.00 0.00 0.00 45 1014.8
20260503005004 64 57 5.0 12.0 0.00 0.00 0.00 44 1014.7
20260503004504 64 93 4.0 10.0 0.00 0.00 0.00 42 1014.5
20260503004004 64 133 5.0 12.0 0.00 0.00 0.00 41 1014.5
20260503003504 64 125 9.0 13.0 0.00 0.00 0.00 40 1014.4
20260503002504 64 107 6.0 12.0 0.00 0.00 0.00 43 1014.2
20260503001504 66 133 9.0 15.0 0.00 0.00 0.00 39 1014.5
20260503000005 68 92 0.0 0.0 0.00 0.00 0.00 31 1014.2
20260502235504 68 92 0.0 5.0 0.00 0.00 0.00 31 1014.1
20260502235004 68 175 0.0 0.0 0.00 0.00 0.00 32 1014.1
20260502234504 68 175 0.0 0.0 0.00 0.00 0.00 31 1014.1
20260502234005 68 175 0.0 0.0 0.00 0.00 0.00 30 1014.1
20260502233504 68 175 0.0 6.0 0.00 0.00 0.00 30 1014.0
20260502233004 68 222 0.0 0.0 0.00 0.00 0.00 29 1014.1
20260502232505 68 222 0.0 0.0 0.00 0.00 0.00 29 1014.1
20260502232004 68 222 0.0 0.0 0.00 0.00 0.00 29 1014.2
20260502231505 68 222 2.0 7.0 0.00 0.00 0.00 30 1014.3
20260502231004 68 198 1.0 3.0 0.00 0.00 0.00 32 1014.3
20260502230504 69 278 1.0 7.0 0.00 0.00 0.00 33 1014.2
20260502230004 69 220 2.0 7.0 0.00 0.00 0.00 31 1014.2
20260502225504 69 312 1.0 5.0 0.00 0.00 0.00 31 1014.2
20260502225004 69 272 0.0 1.0 0.00 0.00 0.00 30 1014.2
20260502224004 69 303 1.0 7.0 0.00 0.00 0.00 30 1014.3
20260502223505 69 283 3.0 6.0 0.00 0.00 0.00 32 1014.4
20260502223004 69 293 3.0 7.0 0.00 0.00 0.00 31 1014.4
20260502222504 69 298 1.0 6.0 0.00 0.00 0.00 29 1014.6
20260502222004 69 325 5.0 10.0 0.00 0.00 0.00 30 1014.8
20260502221504 69 229 0.0 0.0 0.00 0.00 0.00 33 1014.8
20260502221005 69 229 1.0 6.0 0.00 0.00 0.00 30 1014.8
20260502220504 68 273 3.0 8.0 0.00 0.00 0.00 30 1014.9
20260502220005 68 287 0.0 0.0 0.00 0.00 0.00 30 1015.0
20260502215504 68 287 0.0 0.0 0.00 0.00 0.00 30 1015.1
20260502214504 68 287 0.0 0.0 0.00 0.00 0.00 30 1015.1
20260502214004 68 287 0.0 0.0 0.00 0.00 0.00 30 1015.2
20260502213505 68 287 0.0 2.0 0.00 0.00 0.00 31 1015.2
20260502212505 68 316 2.0 7.0 0.00 0.00 0.00 30 1015.4
20260502212004 68 283 2.0 8.0 0.00 0.00 0.00 30 1015.6
20260502211504 68 291 5.0 12.0 0.00 0.00 0.00 29 1015.6
20260502211004 68 288 2.0 6.0 0.00 0.00 0.00 28 1015.6
20260502210505 68 275 2.0 7.0 0.00 0.00 0.00 28 1015.7
20260502210004 68 225 1.0 5.0 0.00 0.00 0.00 30 1015.7
20260502205504 69 248 0.0 1.0 0.00 0.00 0.00 28 1015.6
20260502204504 69 315 2.0 3.0 0.00 0.00 0.00 27 1015.7
20260502204005 70 192 3.0 9.0 0.00 0.00 0.00 26 1015.6
20260502203004 70 215 0.0 1.0 0.00 0.00 0.00 27 1015.7
20260502202504 69 198 1.0 3.0 0.00 0.00 0.00 28 1015.8
20260502202004 69 281 1.0 5.0 0.00 0.00 0.00 27 1015.8
20260502201504 69 303 1.0 5.0 0.00 0.00 0.00 27 1015.8
20260502201005 69 287 0.0 0.0 0.00 0.00 0.00 28 1015.8
20260502200505 70 287 2.0 6.0 0.00 0.00 0.00 27 1015.9
20260502200005 70 295 0.0 6.0 0.00 0.00 0.00 27 1015.8
20260502195504 70 309 1.0 6.0 0.00 0.00 0.00 26 1016.0
20260502194504 71 171 5.0 10.0 0.00 0.00 0.00 25 1016.1
20260502194004 71 183 4.0 9.0 0.00 0.00 0.00 26 1016.1
20260502193503 70 203 1.0 5.0 0.00 0.00 0.00 26 1016.1
20260502193005 70 202 4.0 7.0 0.00 0.00 0.00 26 1016.1
20260502192505 70 262 1.0 8.0 0.00 0.00 0.00 26 1016.1
20260502192004 70 178 5.0 9.0 0.00 0.00 0.00 25 1016.2
20260502191505 71 216 2.0 8.0 0.00 0.00 0.00 26 1016.2
20260502191004 71 221 5.0 9.0 0.00 0.00 0.00 25 1016.2
20260502190505 71 174 7.0 9.0 0.00 0.00 0.00 24 1016.2
20260502190004 71 204 6.0 9.0 0.00 0.00 0.00 24 1016.3
20260502185504 71 183 7.0 13.0 0.00 0.00 0.00 25 1016.3
20260502185004 71 222 5.0 10.0 0.00 0.00 0.00 25 1016.3
20260502184504 71 185 7.0 10.0 0.00 0.00 0.00 25 1016.3
20260502184004 70 237 4.0 13.0 0.00 0.00 0.00 26 1016.4
20260502182004 69 206 7.0 16.0 0.00 0.00 0.00 29 1016.7
20260502181504 68 220 6.0 12.0 0.00 0.00 0.00 28 1016.7
20260502180504 68 242 5.0 9.0 0.00 0.00 0.00 29 1016.8
20260502164004 64 246 0.0 0.0 0.00 0.00 0.00 42 1016.9
20260502163504 63 246 0.0 0.0 0.00 0.00 0.00 43 1016.9
20260502163004 63 246 0.0 3.0 0.00 0.00 0.00 43 1016.9
20260502162504 63 328 0.0 0.0 0.00 0.00 0.00 44 1016.8
20260502162004 63 328 1.0 5.0 0.00 0.00 0.00 45 1016.8
20260502161504 63 154 0.0 0.0 0.00 0.00 0.00 43 1016.8
20260502161005 63 154 0.0 0.0 0.00 0.00 0.00 43 1016.8
20260502151504 56 154 0.0 0.0 0.00 0.00 0.00 48 1016.9
20260502151005 55 154 0.0 0.0 0.00 0.00 0.00 50 1017.0
20260502150505 54 154 0.0 0.0 0.00 0.00 0.00 52 1016.9
20260502130504 45 154 0.0 0.0 0.00 0.00 0.00 58 1016.2
20260502123004 44 154 0.0 0.0 0.00 0.00 0.00 57 1016.1
20260502122504 45 154 0.0 0.0 0.00 0.00 0.00 56 1016.0
20260502122004 45 154 0.0 0.0 0.00 0.00 0.00 55 1016.0
20260502121504 45 154 0.0 0.0 0.00 0.00 0.00 55 1016.0
20260502121005 45 154 0.0 0.0 0.00 0.00 0.00 55 1016.0
20260502120504 45 154 0.0 0.0 0.00 0.00 0.00 54 1016.1
20260502115505 45 154 0.0 0.0 0.00 0.00 0.00 54 1016.0
20260502115004 45 154 0.0 0.0 0.00 0.00 0.00 53 1016.0
20260502114505 45 154 0.0 0.0 0.00 0.00 0.00 52 1016.0
20260502114004 45 154 0.0 0.0 0.00 0.00 0.00 51 1016.1
20260502113504 45 154 0.0 0.0 0.00 0.00 0.00 51 1016.1
20260502113004 45 154 0.0 0.0 0.00 0.00 0.00 51 1016.1
20260502112504 45 154 0.0 0.0 0.00 0.00 0.00 50 1016.1
20260502112004 45 154 0.0 0.0 0.00 0.00 0.00 49 1016.1
20260502111504 46 154 0.0 0.0 0.00 0.00 0.00 48 1016.1
20260502111004 46 154 0.0 0.0 0.00 0.00 0.00 47 1016.1
20260502105504 47 154 0.0 0.0 0.00 0.00 0.00 45 1016.1
20260502105004 47 154 0.0 0.0 0.00 0.00 0.00 44 1016.1
20260502104504 47 154 0.0 0.0 0.00 0.00 0.00 44 1016.1
20260502104004 47 154 0.0 0.0 0.00 0.00 0.00 44 1016.1
20260502103505 46 154 0.0 0.0 0.00 0.00 0.00 45 1016.1
20260502103004 47 154 0.0 0.0 0.00 0.00 0.00 46 1016.1
20260502102505 47 154 0.0 0.0 0.00 0.00 0.00 44 1016.0
20260502102004 47 154 0.0 0.0 0.00 0.00 0.00 44 1016.0
20260502101004 47 154 0.0 0.0 0.00 0.00 0.00 44 1016.0
20260502100505 47 154 0.0 0.0 0.00 0.00 0.00 44 1015.8
20260502091504 47 154 0.0 0.0 0.00 0.00 0.00 44 1016.2
20260502091004 48 154 0.0 0.0 0.00 0.00 0.00 43 1016.3
20260502071504 51 154 0.0 0.0 0.00 0.00 0.00 39 1017.1
20260502071004 52 154 0.0 0.0 0.00 0.00 0.00 38 1017.1
20260502070504 52 154 0.0 0.0 0.00 0.00 0.00 37 1017.0
20260502070004 53 154 0.0 0.0 0.00 0.00 0.00 36 1017.0
20260502065504 53 154 0.0 0.0 0.00 0.00 0.00 35 1017.0
20260502065004 54 154 0.0 0.0 0.00 0.00 0.00 35 1017.0
20260502064505 54 154 0.0 0.0 0.00 0.00 0.00 35 1017.0
20260502064004 54 154 0.0 0.0 0.00 0.00 0.00 34 1017.0
20260502063505 54 154 0.0 0.0 0.00 0.00 0.00 34 1016.9
20260502063005 54 154 0.0 0.0 0.00 0.00 0.00 34 1016.9
20260502062504 54 154 0.0 2.0 0.00 0.00 0.00 34 1017.0
20260502062004 54 37 0.0 0.0 0.00 0.00 0.00 34 1016.8
20260502061504 55 37 0.0 0.0 0.00 0.00 0.00 34 1016.9
20260502061005 55 37 0.0 0.0 0.00 0.00 0.00 34 1016.9
20260502060504 55 37 0.0 0.0 0.00 0.00 0.00 33 1016.9
20260502060004 56 37 0.0 0.0 0.00 0.00 0.00 34 1017.0
20260502055504 56 37 0.0 0.0 0.00 0.00 0.00 34 1017.0
20260502055004 56 37 0.0 0.0 0.00 0.00 0.00 34 1017.0
20260502054005 56 37 0.0 0.0 0.00 0.00 0.00 35 1017.0
20260502053505 57 37 0.0 0.0 0.00 0.00 0.00 35 1017.0
20260502053005 57 37 0.0 0.0 0.00 0.00 0.00 34 1017.0
20260502052004 58 37 0.0 0.0 0.00 0.00 0.00 33 1017.0
20260502051504 59 37 0.0 1.0 0.00 0.00 0.00 32 1016.9
20260502051005 59 312 0.0 0.0 0.00 0.00 0.00 30 1016.9
20260502050504 60 312 0.0 0.0 0.00 0.00 0.00 30 1016.9
20260502050005 60 307 1.0 3.0 0.00 0.00 0.00 32 1017.0
20260502045504 60 282 0.0 0.0 0.00 0.00 0.00 33 1016.9
20260502045004 61 282 0.0 0.0 0.00 0.00 0.00 34 1017.0
20260502044504 61 282 0.0 1.0 0.00 0.00 0.00 31 1016.9
20260502043505 61 299 0.0 0.0 0.00 0.00 0.00 28 1016.8
20260502043004 61 299 0.0 0.0 0.00 0.00 0.00 30 1016.7
20260502042504 61 299 0.0 7.0 0.00 0.00 0.00 30 1016.6
20260502042005 61 316 1.0 2.0 0.00 0.00 0.00 32 1016.7
20260502041505 61 176 0.0 0.0 0.00 0.00 0.00 31 1016.7
20260502041005 61 176 0.0 0.0 0.00 0.00 0.00 31 1016.7
20260502040505 62 176 0.0 0.0 0.00 0.00 0.00 32 1016.6
20260502040004 62 176 0.0 0.0 0.00 0.00 0.00 31 1016.6
20260502035505 63 176 0.0 0.0 0.00 0.00 0.00 31 1016.4
20260502035004 63 176 0.0 0.0 0.00 0.00 0.00 25 1016.3
20260502034504 64 176 0.0 0.0 0.00 0.00 0.00 21 1016.2
20260502034005 64 176 0.0 0.0 0.00 0.00 0.00 22 1016.1
20260502033504 65 176 0.0 0.0 0.00 0.00 0.00 17 1016.0
20260502033004 65 176 0.0 3.0 0.00 0.00 0.00 16 1015.9
20260502032005 65 167 1.0 5.0 0.00 0.00 0.00 16 1015.7
20260502031504 65 143 0.0 0.0 0.00 0.00 0.00 18 1015.6
20260502031004 66 143 1.0 7.0 0.00 0.00 0.00 16 1015.6
20260502030504 66 200 5.0 8.0 0.00 0.00 0.00 16 1015.6